Frederick, OK

12:03 PM CST on December 11, 2017 (GMT -0600)
Frederick Municipal

Weather History for KFDR - October, 2013

Change the Weather History Date:

Sunday, October 6, 2013

  Actual Average (KLTS) Record (KLTS)
Temperature  
Mean Temperature 60 °F -  
Max Temperature 75 °F 77 °F 91 °F (2007)
Min Temperature 46 °F 55 °F 45 °F (2012)
Degree Days  
Heating Degree Days 4    
Growing Degree Days 10 (Base 50)    
Moisture  
Dew Point 32 °F    
Average Humidity 38    
Maximum Humidity 68    
Minimum Humidity 18    
Precipitation  
Precipitation 0.00 in - - ()
Sea Level Pressure  
Sea Level Pressure 30.08 in    
Wind  
Wind Speed 9 mph (NW)    
Max Wind Speed 25 mph    
Max Gust Speed 32 mph    
Visibility 10 miles    
Events      
Averages and records for this station are not official NWS values.
T = Trace of Precipitation, MM = Missing Value Source: NWS Daily Summary

Daily Weather History Graph

Daily Weather History Graph

Search for Another Location

Airport or City:

Trip Planner

Search our weather history database for the weather conditions in past years. The results will help you decide how hot, cold, wet, or windy it might be!

Date:

Astronomy

Oct. 06, 2013 Rise Set
Actual Time 7:34 AM CDT 7:12 PM CDT
Civil Twilight 7:09 AM CDT 7:37 PM CDT
Nautical Twilight 6:40 AM CDT 8:06 PM CDT
Astronomical Twilight 6:11 AM CDT 8:36 PM CDT
Moon 9:14 AM CDT (10/6) 8:20 PM CDT (10/6)
Length of Visible Light 12h 28m
Length of Day
11h 38m
Waxing Crescent, 3% of the Moon is Illuminated
Oct 6
Waxing Crescent
Oct 11
First Quarter
Oct 18
Full
Oct 26
Last Quarter
Nov 3
New

Hourly Weather History & Observations

Time (CDT) Temp. Dew Point Humidity Pressure Visibility Wind Dir Wind Speed Gust Speed Precip Events Conditions
12:53 AM 51.1 °F 37.9 °F 61% 30.07 in 9.0 mi West 4.6 mph - N/A   Clear
1:53 AM 50.0 °F 37.9 °F 63% 30.06 in 7.0 mi West 6.9 mph - N/A   Clear
2:53 AM 48.9 °F 37.0 °F 64% 30.07 in 10.0 mi WNW 6.9 mph - N/A   Clear
3:53 AM 53.1 °F 35.1 °F 50% 30.08 in 10.0 mi NNW 15.0 mph 24.2 mph N/A   Clear
4:53 AM 48.9 °F 37.0 °F 64% 30.08 in 10.0 mi NW 8.1 mph - N/A   Clear
5:53 AM 46.9 °F 37.0 °F 68% 30.09 in 10.0 mi NW 8.1 mph - N/A   Clear
6:53 AM 46.9 °F 35.1 °F 63% 30.11 in 10.0 mi NW 6.9 mph - N/A   Clear
7:53 AM 48.9 °F 32.0 °F 52% 30.12 in 10.0 mi NNW 8.1 mph - N/A   Clear
8:53 AM 55.9 °F 28.9 °F 36% 30.13 in 10.0 mi North 15.0 mph 23.0 mph N/A   Clear
9:53 AM 62.1 °F 27.0 °F 26% 30.14 in 10.0 mi NNW 16.1 mph 23.0 mph N/A   Clear
10:53 AM 64.9 °F 27.0 °F 24% 30.14 in 10.0 mi NNW 21.9 mph 27.6 mph N/A   Clear
11:53 AM 68.0 °F 25.0 °F 20% 30.13 in 10.0 mi North 25.3 mph 32.2 mph N/A   Clear
12:53 PM 70.0 °F 24.1 °F 18% 30.12 in 10.0 mi North 15.0 mph 24.2 mph N/A   Clear
1:53 PM 72.0 °F 26.1 °F 18% 30.10 in 10.0 mi NNW 21.9 mph 28.8 mph N/A   Clear
2:53 PM 73.9 °F 28.9 °F 19% 30.07 in 10.0 mi NNW 19.6 mph 25.3 mph N/A   Clear
3:53 PM 73.9 °F 30.0 °F 20% 30.05 in 10.0 mi North 13.8 mph 18.4 mph N/A   Clear
4:53 PM 73.9 °F 30.9 °F 21% 30.03 in 10.0 mi Calm Calm - N/A   Clear
5:53 PM 75.9 °F 32.0 °F 20% 30.02 in 10.0 mi Calm Calm - N/A   Clear
6:53 PM 73.0 °F 32.0 °F 22% 30.02 in 10.0 mi Calm Calm - N/A   Clear
7:53 PM 66.0 °F 35.1 °F 32% 30.04 in 10.0 mi SSE 5.8 mph - N/A   Clear
8:53 PM 63.0 °F 34.0 °F 34% 30.04 in 10.0 mi South 4.6 mph - N/A   Clear
9:53 PM 62.1 °F 36.0 °F 38% 30.05 in 9.0 mi Calm Calm - N/A   Clear
10:53 PM 61.0 °F 36.0 °F 39% 30.06 in 10.0 mi West 3.5 mph - N/A   Clear
11:53 PM 61.0 °F 35.1 °F 38% 30.06 in 10.0 mi West 4.6 mph - N/A   Clear